Location: Tel Aviv
(32.0670°N, 34.7670°E)
Time: 01:36:40
(UTC+02:00)

Transit 4A - Pass Details

Date: 16 December 2023
Orbit: 869 x 974 km, 66.8° (Epoch: 23 February)

Event Time Altitude Azimuth Distance (km) Brightness Sun altitude
Rises 18:08:41 0° 248° (WSW) 3,659 12.7 -18.6°
Reaches altitude 10° 18:12:06 10° 266° (W) 2,713 11.5 -19.3°
Maximum altitude 18:16:23 19° 308° (NW) 2,147 10.2 -20.2°
Drops below altitude 10° 18:20:39 10° 351° (N) 2,696 10.2 -21.0°
Enters shadow 18:23:33 - 8° (N) 3,472 10.7 -21.6°
